Weather History for KABE - January, 2009

Change the Weather History Date:

Friday, January 2, 2009

  Actual Average Record
Temperature  
Mean Temperature 26 °F 28 °F  
Max Temperature 34 °F 36 °F 59 °F (1979)
Min Temperature 17 °F 20 °F -7 °F (1968)
Degree Days  
Heating Degree Days 39 37  
Month to date heating degree days 84 74  
Since 1 July heating degree days 2296 2269  
Cooling Degree Days 0 0  
Month to date cooling degree days 0 0  
Year to date cooling degree days 0 0  
Moisture  
Dew Point 18 °F    
Average Humidity 67    
Maximum Humidity 88    
Minimum Humidity 46    
Precipitation  
Precipitation T in 0.09 in 1.37 in (1979)
Month to date precipitation T 0.18  
Year to date precipitation T 0.18  
Snow  
Snow T in 0.20 in 5.20 in (1925)
Month to date snowfall T 0.5  
Since 1 July snowfall 6.3 6.4  
Snow Depth 0.00 in    
Sea Level Pressure  
Sea Level Pressure 29.89 in    
Wind  
Wind Speed 5 mph (SSW)    
Max Wind Speed 15 mph    
Max Gust Speed 18 mph    
Visibility 8 miles    
Events Snow    
T = Trace of Precipitation, MM = Missing Value Source: NWS Daily Summary

Daily Weather History Graph

Daily Weather History Graph

Search for Another Location

Airport or City:

Trip Planner

Search our weather history database for the weather conditions in past years. The results will help you decide how hot, cold, wet, or windy it might be!

Date:

Astronomy

Jan. 02, 2009 Rise Set
Actual Time 7:25 AM EST 4:46 PM EST
Civil Twilight 6:55 AM EST 5:17 PM EST
Nautical Twilight 6:20 AM EST 5:51 PM EST
Astronomical Twilight 5:47 AM EST 6:24 PM EST
Moon 10:33 AM EST (1/2) 10:59 PM EST (1/2)
Length of Visible Light 10h 22m
Length of Day
9h 20m
Waxing Crescent, 32% of the Moon is Illuminated
Jan 2
Waxing Crescent
Jan 4
First Quarter
Jan 10
Full
Jan 17
Last Quarter
Jan 26
New

Hourly Weather History & Observations

Time (EST) Temp. Windchill Dew Point Humidity Pressure Visibility Wind Dir Wind Speed Gust Speed Precip Events Conditions
12:51 AM 19.9 °F - 12.0 °F 71% 30.18 in 10.0 mi Calm Calm - N/A   Overcast
1:51 AM 21.9 °F 17.2 °F 10.0 °F 60% 30.14 in 10.0 mi ESE 3.5 mph - N/A   Overcast
2:51 AM 24.1 °F 18.2 °F 7.0 °F 48% 30.12 in 10.0 mi South 4.6 mph - N/A   Overcast
3:51 AM 25.0 °F 19.3 °F 9.0 °F 51% 30.08 in 10.0 mi SE 4.6 mph - N/A   Overcast
4:51 AM 25.0 °F 17.1 °F 10.9 °F 55% 30.04 in 10.0 mi South 6.9 mph - N/A   Overcast
5:51 AM 27.0 °F 20.5 °F 12.9 °F 56% 30.00 in 10.0 mi South 5.8 mph - N/A   Overcast
6:51 AM 27.0 °F 21.6 °F 14.0 °F 58% 30.00 in 10.0 mi SW 4.6 mph - N/A   Overcast
7:51 AM 27.0 °F 23.0 °F 15.1 °F 61% 29.97 in 10.0 mi South 3.5 mph - N/A   Mostly Cloudy
8:51 AM 28.0 °F 20.0 °F 15.1 °F 58% 29.96 in 10.0 mi South 8.1 mph - N/A   Scattered Clouds
9:51 AM 30.0 °F 21.7 °F 16.0 °F 56% 29.94 in 10.0 mi SSW 9.2 mph - N/A   Mostly Cloudy
10:51 AM 30.9 °F 22.8 °F 15.1 °F 52% 29.92 in 10.0 mi SSW 9.2 mph - N/A   Mostly Cloudy
11:10 AM 30.2 °F 22.6 °F 15.8 °F 55% 29.89 in 10.0 mi SSW 8.1 mph - N/A   Overcast
11:26 AM 30.2 °F 20.2 °F 17.6 °F 60% 29.88 in 3.0 mi SW 12.7 mph 17.3 mph 0.00 in Snow Light Snow
11:51 AM 30.0 °F 22.4 °F 19.9 °F 66% 29.88 in 3.0 mi WSW 8.1 mph - 0.00 in Snow Light Snow
12:14 PM 30.2 °F 20.8 °F 21.2 °F 69% 29.86 in 2.5 mi SW 11.5 mph - 0.00 in Snow Light Snow
12:27 PM 28.4 °F 18.5 °F 24.8 °F 86% 29.85 in 1.8 mi WSW 11.5 mph - 0.00 in Snow Light Snow
12:42 PM 28.4 °F 19.7 °F 24.8 °F 86% 29.85 in 3.0 mi WSW 9.2 mph - 0.00 in Snow Light Snow
12:51 PM 30.0 °F 22.4 °F 24.1 °F 79% 29.86 in 3.0 mi WSW 8.1 mph - 0.00 in Snow Light Snow
1:08 PM 30.2 °F 23.4 °F 24.8 °F 80% 29.83 in 9.0 mi SW 6.9 mph - 0.00 in   Overcast
1:51 PM 30.9 °F 22.2 °F 24.1 °F 76% 29.83 in 10.0 mi SW 10.4 mph - 0.00 in   Mostly Cloudy
2:51 PM 33.1 °F 23.9 °F 25.0 °F 72% 29.80 in 10.0 mi WSW 12.7 mph - N/A   Clear
3:51 PM 33.1 °F 26.9 °F 24.1 °F 70% 29.79 in 10.0 mi SSW 6.9 mph - N/A   Clear
4:51 PM 30.0 °F 26.5 °F 23.0 °F 75% 29.78 in 10.0 mi South 3.5 mph - N/A   Clear
5:51 PM 27.0 °F - 21.9 °F 81% 29.77 in 10.0 mi Calm Calm - N/A   Clear
6:51 PM 27.0 °F - 21.9 °F 81% 29.76 in 9.0 mi Calm Calm - N/A   Clear
7:51 PM 26.1 °F 21.9 °F 21.0 °F 81% 29.76 in 7.0 mi NE 3.5 mph - N/A   Clear
8:51 PM 23.0 °F - 19.9 °F 88% 29.76 in 6.0 mi Calm Calm - N/A   Clear
9:51 PM 23.0 °F - 19.0 °F 85% 29.77 in 6.0 mi Calm Calm - N/A   Mostly Cloudy
10:51 PM 24.1 °F - 21.0 °F 88% 29.78 in 6.0 mi Calm Calm - N/A   Clear
11:51 PM 26.1 °F 18.4 °F 19.9 °F 78% 29.78 in 10.0 mi West 6.9 mph - N/A   Clear